Wind_Speed
1 1 1 1 2 1 2 1 2 2 3 2 2 2 1 1 1 1 1 2 2 2 0 1 2 4 5 5 3 3 6 8 8 9 10 13 18 23 28 32 34 35 34 32 30 30 29 28 26 26 25 24 23 21 19 18 17 14 12 11 10 9 8 7 5 4 3 2 1 2 3 4 3 4 3 3 2 1 1 2 3 3 4 5 6 6
1 1 1 3 3 1 1 3 4 4 3 2 2 2 1 2 1 1 1 2 2 1 0 1 2 3 3 4 3 1 3 7 11 11 12 15 18 22 28 32 35 36 35 32 30 30 30 29 29 28 27 26 25 23 21 20 18 16 14 12 10 9 7 7 5 3 5 4 3 3 4 6 6 6 6 4 3 3 2 2 2 2 2 2 3 4
0 1 3 3 2 4 4 4 4 4 3 2 2 2 2 1 2 1 0 2 2 1 0 1 3 3 3 4 3 3 4 6 11 16 18 19 21 23 28 32 34 35 34 33 32 32 32 32 31 31 30 29 28 26 24 22 20 19 16 13 11 9 7 7 7 6 6 6 5 6 6 7 7 7 6 5 5 5 5 5 5 5 4 4 3 2
0 1 1 3 5 5 3 3 4 3 2 1 2 2 1 0 1 1 0 2 2 2 1 1 3 3 2 2 2 3 4 5 7 12 17 20 23 26 28 31 34 35 36 36 36 35 34 33 34 34 34 33 31 29 27 25 23 22 19 14 12 10 9 8 9 9 8 7 7 8 8 8 7 7 7 7 6 6 6 6 7 7 6 5 4 3
2 1 5 5 3 3 3 3 4 3 2 1 2 3 1 1 2 2 1 3 1 1 2 2 4 2 1 0 2 1 4 5 5 5 10 15 21 24 26 29 32 35 38 39 39 38 36 36 37 38 37 36 34 32 31 28 26 24 20 15 13 12 10 10 11 10 9 8 8 9 10 9 8 8 8 7 7 7 6 7 7 7 7 7 6 5
2 1 5 4 2 2 3 3 4 4 2 1 4 6 4 3 3 2 1 2 1 0 3 3 4 2 1 1 2 1 3 2 3 4 5 8 13 18 23 27 30 34 36 38 39 40 40 40 40 40 40 39 37 34 33 31 28 25 21 17 15 14 13 12 11 11 10 8 7 8 9 10 10 9 8 7 6 6 6 6 7 7 8 8 7 7
0 2 3 3 3 3 2 2 4 4 3 1 3 6 5 4 3 3 1 0 1 2 2 2 4 3 1 1 1 2 3 2 3 2 1 1 5 11 17 21 25 29 33 37 39 40 41 41 41 42 43 42 39 36 35 33 30 27 23 19 17 16 15 13 12 12 10 8 7 7 8 9 9 8 6 6 5 5 5 5 6 7 7 7 7 7
2 2 2 2 3 3 1 1 3 6 4 1 1 5 7 5 4 4 2 1 1 2 1 1 1 3 4 1 1 2 4 3 2 2 4 2 1 5 10 15 18 22 27 33 38 40 42 42 42 43 44 43 40 37 36 35 33 29 25 21 18 18 17 15 13 12 10 9 9 10 11 9 9 8 6 5 4 4 4 4 5 6 7 7 7 8
2 2 1 1 1 1 2 0 5 8 3 1 1 4 4 4 3 3 2 1 1 2 3 1 1 3 4 1 0 1 2 2 3 6 7 5 5 7 9 12 16 20 24 28 32 37 40 41 42 43 44 43 40 38 38 37 34 31 27 23 21 20 19 17 15 13 11 10 11 12 13 12 10 9 7 6 4 4 3 3 4 4 5 6 7 8
1 3 2 3 2 2 1 1 4 6 1 2 5 5 5 5 5 3 2 2 2 2 5 1 1 3 3 1 1 1 1 2 4 6 7 8 10 11 12 13 14 18 23 28 30 33 37 39 40 41 41 41 39 39 39 38 35 32 29 26 23 22 21 20 17 15 12 12 12 13 14 14 11 10 10 8 7 6 4 3 3 3 4 4 5 6
2 2 2 2 2 1 3 3 1 1 3 5 5 4 5 4 3 2 2 1 1 3 4 1 1 3 3 1 0 1 1 3 5 6 6 9 13 14 13 14 15 14 18 24 28 31 33 35 36 37 38 39 39 40 41 39 37 34 31 28 25 23 23 22 19 17 14 13 13 13 14 15 13 11 11 10 9 8 6 5 4 3 3 3 4 4
3 1 2 2 2 3 4 3 3 2 3 3 2 2 2 1 2 1 1 1 3 4 1 3 1 3 5 1 2 1 3 4 4 5 7 9 13 16 16 16 14 12 13 16 22 27 29 31 32 34 36 37 38 41 42 40 38 36 33 31 28 26 25 24 22 19 16 14 13 13 14 15 14 12 12 11 9 9 8 6 6 4 4 3 3 3
3 2 1 3 2 4 2 2 3 1 2 2 2 2 2 2 1 1 1 1 4 3 1 2 1 3 4 3 1 2 3 3 3 5 7 10 13 15 16 16 13 11 10 8 12 20 24 27 29 31 33 35 37 40 42 41 39 37 35 33 31 29 27 26 24 21 19 16 14 13 14 15 15 14 13 11 10 9 9 8 7 5 4 4 3 3
3 1 1 1 1 2 3 3 2 2 3 4 3 3 4 2 1 2 2 1 3 2 2 1 1 2 3 1 2 2 3 5 5 6 7 9 11 12 13 13 12 10 8 5 3 11 17 22 25 28 30 32 35 39 41 41 39 37 36 35 33 31 28 27 25 24 21 18 15 14 14 16 16 15 13 12 11 10 10 10 8 6 4 3 4 4
3 2 0 1 0 1 2 3 0 2 3 2 1 1 3 3 2 3 3 3 3 0 2 0 1 2 2 1 2 3 4 5 5 6 7 8 7 8 11 15 15 13 10 7 3 3 9 15 19 23 26 28 32 36 39 39 36 36 36 36 35 32 30 29 27 26 24 20 18 16 16 16 17 16 15 13 12 12 12 11 10 8 6 5 5 5
2 3 2 2 1 0 1 1 1 2 3 1 0 1 2 3 3 1 1 1 1 0 1 2 2 1 1 1 2 2 3 4 6 6 6 7 8 11 17 20 21 19 15 10 5 2 3 8 13 18 21 24 27 31 35 36 33 33 35 37 36 34 32 31 29 28 26 23 20 19 17 17 17 17 17 16 14 14 13 13 12 10 8 7 7 7
1 2 2 2 1 1 1 1 1 1 2 2 2 3 1 1 3 3 1 2 1 3 2 1 2 2 1 1 1 1 2 3 4 5 5 7 9 13 19 22 23 23 20 15 10 5 1 4 7 11 15 18 21 25 29 31 30 29 31 34 36 35 34 33 32 30 28 25 23 21 19 19 19 19 19 18 17 16 15 15 14 12 11 10 9 9
2 3 2 1 1 2 3 1 3 3 1 2 2 3 3 1 2 2 1 2 0 4 2 1 3 3 3 2 4 3 2 1 2 3 4 7 10 12 15 18 22 23 23 21 17 11 6 3 3 5 8 11 14 17 20 23 24 24 26 30 34 35 35 35 33 32 30 28 26 24 21 20 20 20 20 20 19 19 18 17 16 15 14 13 12 11
1 3 2 0 2 2 3 1 2 4 3 1 1 3 2 2 2 2 2 1 2 3 1 2 2 2 5 4 6 8 6 3 1 2 3 5 8 9 11 17 21 24 24 24 22 19 14 9 6 5 3 3 6 8 11 13 16 18 20 24 28 31 34 36 35 34 33 31 29 27 24 21 21 21 21 21 21 22 22 20 19 18 17 16 15 15
0 2 2 1 1 3 2 1 2 1 3 2 2 2 1 2 1 1 1 1 3 3 1 2 2 3 4 3 7 11 8 5 2 0 2 4 5 6 10 16 21 23 25 26 25 22 20 16 14 12 10 7 4 2 3 5 7 9 13 17 22 26 30 34 36 36 35 34 32 30 27 24 23 23 22 22 22 23 24 23 21 20 19 18 18 17
0 1 2 1 1 3 1 1 1 1 2 1 2 3 1 1 0 1 1 0 1 2 2 2 3 3 1 1 5 9 7 4 2 1 1 3 4 5 10 15 19 23 25 26 26 25 23 21 18 16 14 12 9 7 4 2 1 2 6 10 15 19 24 29 33 36 37 36 35 33 30 27 25 23 23 24 25 25 25 25 24 23 22 21 20 20
0 1 2 2 3 3 1 2 1 1 1 1 1 2 2 2 2 3 3 1 0 1 2 2 3 1 2 1 3 4 4 3 2 1 1 3 4 6 10 14 19 22 24 26 25 25 25 24 22 21 19 17 15 12 10 7 5 4 1 5 10 13 17 21 25 29 32 35 36 36 35 32 29 25 24 25 27 28 28 27 26 25 24 24 23 22
1 1 1 3 4 3 2 2 2 2 1 1 1 0 1 1 2 4 5 2 2 1 1 1 2 1 2 1 2 1 1 2 2 2 3 3 4 7 11 14 18 21 23 24 24 24 24 23 22 21 20 20 18 15 13 11 11 10 7 2 5 9 11 13 15 18 21 26 30 34 36 37 35 31 29 28 27 28 29 30 29 27 27 26 25 24
1 1 1 2 3 2 1 0 0 1 1 1 1 1 0 1 0 2 2 1 2 3 3 2 3 2 2 1 0 1 2 2 2 4 6 6 7 9 12 14 17 18 19 20 20 21 21 21 20 20 19 18 17 15 14 13 11 10 8 4 2 5 7 9 10 11 13 16 20 25 30 34 37 37 36 34 32 29 29 30 31 31 30 28 28 27
1 1 1 2 3 3 2 1 2 2 1 1 1 1 1 0 3 1 1 1 3 3 3 4 4 2 2 1 1 0 1 3 4 6 8 8 9 10 12 14 14 14 14 15 15 15 15 16 16 16 16 16 15 15 14 13 11 9 7 5 3 1 1 3 5 7 9 12 15 17 21 26 30 35 39 40 39 35 31 30 32 33 33 32 31 30
1 0 2 3 4 5 4 4 2 1 0 1 1 1 0 1 2 1 1 2 3 1 2 4 3 1 2 2 1 1 2 4 5 5 7 8 9 10 12 12 12 12 12 12 12 12 12 12 12 12 12 12 12 12 11 11 10 9 7 5 4 4 4 3 2 3 6 9 12 14 16 19 23 28 34 38 41 41 39 35 33 33 35 35 34 33
1 0 2 4 6 6 5 4 1 1 2 3 2 2 1 1 0 1 1 3 2 2 3 3 1 1 5 6 4 3 4 5 5 5 7 8 8 9 10 10 10 10 10 10 10 10 10 10 10 9 9 9 9 8 8 8 7 6 5 4 5 5 6 6 6 6 6 7 9 10 12 15 18 22 26 30 36 40 42 41 39 37 36 37 37 37
1 1 1 2 5 5 3 3 1 0 5 6 5 5 3 2 2 3 4 3 2 2 5 4 4 5 6 8 7 6 5 5 5 7 7 7 8 8 8 8 8 8 8 9 9 9 9 9 9 8 8 8 7 7 6 6 5 6 5 5 6 7 7 8 9 9 9 9 9 10 10 11 14 18 21 24 27 32 37 40 41 41 39 38 39 39
1 2 2 2 4 4 3 4 3 2 5 5 5 7 6 5 5 6 6 4 5 7 7 4 8 8 5 6 7 7 9 10 9 9 10 9 9 9 8 8 7 7 7 7 8 8 8 8 8 9 9 9 9 9 8 8 8 9 8 8 8 8 9 10 10 11 12 12 12 12 12 12 13 15 17 20 23 26 29 32 34 36 37 38 37 38
1 2 2 3 4 4 5 5 3 4 5 5 7 8 7 7 8 8 7 5 7 10 5 2 8 9 5 5 4 4 10 13 11 10 10 9 9 10 8 7 6 6 6 6 7 7 8 9 9 10 11 11 12 12 12 13 13 13 14 14 13 13 13 13 13 13 14 15 15 15 15 15 15 15 16 18 21 23 25 26 28 31 33 35 34 35
1 1 1 1 4 5 5 6 6 7 8 10 10 7 5 7 8 8 7 4 4 7 4 3 7 7 4 4 3 1 6 11 10 9 9 8 9 10 8 6 5 5 5 6 7 8 8 9 10 11 12 13 14 15 15 16 16 17 17 17 17 17 17 16 16 16 16 17 17 18 19 19 19 19 19 19 19 20 22 23 25 27 29 31 31 32
1 1 1 1 5 5 4 8 10 7 8 11 9 6 7 9 7 5 5 5 6 7 6 7 8 6 5 5 2 1 6 9 9 8 7 7 9 10 7 5 4 5 6 7 8 8 9 10 11 11 12 13 14 16 17 17 18 19 20 20 21 20 20 19 19 19 19 19 19 19 20 21 22 22 22 22 21 20 20 21 22 23 25 27 29 30
1 2 1 1 4 4 3 4 5 5 7 8 5 5 10 12 8 6 6 6 8 9 7 6 6 3 1 3 5 7 9 8 7 5 5 7 9 9 6 4 3 5 8 8 9 10 11 11 12 13 13 14 15 16 17 18 19 20 21 22 23 23 24 23 23 22 22 21 21 20 20 21 21 23 24 24 24 23 21 20 19 20 22 24 27 30
1 2 2 2 2 3 1 2 2 4 7 4 1 1 7 9 9 10 8 5 5 6 5 4 2 3 2 3 5 6 6 5 4 4 4 5 7 8 7 3 2 5 9 11 11 12 13 14 15 15 16 16 17 17 18 18 19 21 22 24 25 25 26 26 26 26 25 23 23 22 22 22 22 22 23 25 26 25 23 21 18 18 20 22 26 30
3 3 2 1 2 2 1 1 3 6 4 1 2 2 4 5 7 8 6 3 3 4 7 7 3 2 1 2 0 3 6 5 3 3 2 0 3 6 8 6 2 6 11 15 15 16 16 17 18 18 18 19 19 19 19 20 20 22 23 24 26 26 27 28 28 28 27 25 24 23 23 23 23 23 23 24 25 26 25 23 19 16 17 21 26 29
3 3 2 1 2 1 0 3 4 3 4 4 3 2 2 3 3 3 2 4 7 5 5 4 2 0 2 3 5 6 6 4 3 5 7 7 6 5 5 8 8 9 13 17 18 19 20 21 21 22 22 21 21 21 21 21 21 23 24 25 26 26 27 28 29 29 28 27 25 23 23 24 25 24 24 24 25 26 26 24 20 17 17 20 25 30
4 3 2 2 2 2 2 3 3 4 6 5 1 3 2 1 2 2 1 3 6 6 4 4 4 3 2 4 6 5 5 3 2 5 8 10 10 10 9 8 10 13 15 17 19 21 22 23 23 24 24 24 23 23 22 22 23 24 25 26 26 26 27 28 28 28 28 28 27 26 25 24 25 25 24 24 25 26 26 23 19 16 16 20 25 31
2 1 2 3 2 1 2 3 3 4 4 1 0 2 3 2 2 3 2 2 4 6 6 5 6 6 6 6 6 5 3 1 2 2 5 10 12 12 12 12 12 14 16 18 21 22 24 25 25 25 25 25 25 24 23 23 24 26 27 28 27 28 28 28 28 27 27 28 28 27 26 25 25 25 24 24 25 24 24 21 16 15 17 21 25 32
3 1 1 3 2 1 3 4 3 3 1 0 1 3 5 3 2 3 3 2 2 6 8 7 7 8 8 7 6 4 2 2 2 2 9 15 16 16 16 16 16 17 19 20 22 24 25 26 27 27 27 26 26 25 24 24 25 27 29 29 29 30 30 29 28 27 27 28 28 27 26 24 24 24 24 23 23 22 21 18 15 16 19 23 28 35
3 2 1 3 3 2 3 3 3 2 1 1 2 5 6 3 2 4 5 2 2 7 10 8 8 9 8 6 4 2 2 3 3 8 14 18 18 18 18 19 20 21 22 23 24 24 25 26 26 27 27 27 27 26 25 25 27 28 30 30 31 31 31 30 29 28 28 28 27 26 24 23 22 23 23 22 22 21 19 15 14 17 22 27 31 36
1 0 0 2 2 2 3 3 3 2 1 1 3 5 4 1 2 4 4 2 5 11 12 10 10 10 9 6 3 2 5 7 9 13 17 19 20 20 20 21 23 23 24 25 25 24 25 25 25 26 26 27 27 27 26 27 28 30 30 31 32 32 31 30 30 30 29 28 27 24 23 21 21 22 21 22 21 19 15 13 14 19 25 29 32 35
0 1 1 1 1 1 2 2 3 2 0 1 4 6 3 1 2 3 5 9 11 12 13 14 12 10 9 8 7 8 10 11 13 16 18 20 22 24 25 26 27 27 27 27 27 26 26 27 27 28 28 27 27 27 27 28 30 31 31 32 33 32 30 29 30 30 29 27 25 23 22 21 21 21 21 21 20 18 14 14 18 23 26 30 33 32
0 1 2 2 1 1 2 2 3 2 1 3 6 6 3 0 2 6 11 15 15 14 16 17 14 10 9 10 10 11 12 14 16 18 20 23 25 27 29 30 31 32 31 30 29 28 27 29 30 30 30 29 28 28 28 29 31 32 32 33 33 31 29 28 29 28 27 25 23 21 21 21 21 20 20 19 18 16 15 17 21 24 27 31 31 28
1 1 2 1 1 1 2 2 1 0 2 4 7 6 3 3 8 14 15 14 15 17 18 17 15 11 10 11 12 13 15 18 20 22 24 26 27 29 31 32 33 34 33 32 32 30 29 30 31 30 30 29 29 29 29 30 31 33 33 34 32 29 28 27 27 26 25 22 21 20 20 21 21 20 19 17 15 16 18 20 21 23 27 27 25 22
1 1 3 3 2 3 4 5 6 8 8 9 10 9 9 12 17 21 17 12 13 16 18 15 14 11 12 14 15 18 20 21 23 25 26 27 29 30 31 32 33 33 33 33 33 32 31 31 32 31 31 30 30 29 29 30 32 33 34 32 30 29 28 27 26 26 24 22 21 19 19 20 20 18 16 15 16 18 20 21 24 27 27 23 20 18
3 2 2 3 3 5 6 6 7 11 13 15 17 17 17 18 18 18 16 13 15 19 21 18 15 15 17 18 19 22 24 24 25 27 28 29 31 32 32 33 33 32 33 34 34 33 33 33 33 33 33 32 31 30 30 30 31 33 33 32 30 29 28 26 25 25 24 23 21 19 18 18 16 15 15 16 17 19 23 28 31 29 26 24 23 20
2 2 2 4 4 4 4 3 7 12 17 21 24 24 21 18 17 18 19 18 20 23 24 22 20 21 22 22 22 24 25 25 26 28 30 32 33 34 35 35 35 34 34 35 35 34 34 34 34 34 34 34 32 31 31 31 32 33 33 32 30 29 28 25 23 24 25 24 22 19 17 16 15 16 17 17 20 25 28 29 26 23 23 24 23 21
1 2 3 5 4 5 7 9 14 19 21 21 21 20 19 19 21 22 21 21 22 25 25 24 23 24 25 25 25 25 26 27 28 30 33 35 35 35 36 36 37 37 36 35 35 35 34 34 35 36 36 36 34 33 32 32 33 33 32 31 30 28 25 22 22 24 25 22 21 20 16 16 17 18 20 24 29 31 29 26 25 24 24 22 21 20
2 3 3 4 5 7 8 10 13 16 15 15 18 20 21 23 25 25 25 26 27 27 25 25 24 24 24 25 24 24 27 30 32 33 34 35 35 35 35 35 36 36 36 35 35 35 35 36 37 37 38 38 36 34 33 33 34 32 30 29 27 24 23 24 24 25 24 21 20 18 16 17 19 22 27 32 33 32 30 28 26 25 24 22 19 18
4 6 5 4 6 7 7 10 12 12 11 15 22 27 27 25 25 26 28 30 31 29 28 27 25 23 23 23 23 25 29 32 34 34 34 33 33 32 33 33 34 35 35 35 35 36 37 38 38 38 39 38 36 35 34 33 31 28 26 26 25 24 24 23 22 22 21 20 19 19 19 22 25 31 37 38 37 35 31 27 24 23 23 21 18 16
4 5 5 5 7 9 11 16 16 14 15 19 25 30 31 28 25 25 27 31 33 32 29 25 23 23 25 26 27 27 30 33 33 32 31 32 31 31 32 32 33 34 35 35 36 37 38 38 37 37 37 36 35 34 32 29 27 26 26 25 24 23 21 20 19 20 20 20 21 22 23 27 33 38 38 36 34 32 29 27 26 24 21 18 17 16
Wind_Direction
59 134 181 227 248 264 220 186 102 123 129 100 133 154 148 205 253 266 283 16 4 291 223 78 294 288 283 274 257 184 183 187 192 196 200 203 204 206 209 212 214 215 218 219 216 214 213 211 211 211 211 211 211 211 213 214 217 220 222 225 219 206 197 191 187 178 159 149 178 196 176 157 145 143 144 145 153 171 222 267 279 278 271 264 258 252
70 122 225 232 234 235 158 149 122 113 118 115 158 179 189 221 254 352 352 1 11 290 193 71 290 276 278 277 276 252 198 195 194 193 200 203 207 211 212 215 217 218 220 221 220 218 216 214 214 214 215 215 215 215 216 216 218 222 222 222 222 215 198 188 191 176 152 145 147 159 149 139 131 130 131 126 116 105 81 60 24 6 343 313 276 258
69 253 252 228 168 103 87 126 135 114 119 130 160 201 203 214 279 300 292 346 1 303 252 73 299 288 281 279 278 245 217 218 208 206 210 207 207 212 216 219 220 222 223 223 223 222 219 217 216 217 218 219 219 219 220 219 218 222 221 216 217 217 200 184 182 173 161 157 153 150 144 134 127 125 125 118 107 96 86 78 65 53 40 22 4 325
224 204 178 143 139 124 90 121 134 112 125 152 166 209 225 113 284 253 167 342 6 4 340 316 288 289 282 257 266 272 261 265 244 222 220 214 212 217 221 223 223 224 225 225 224 224 222 219 218 219 220 220 219 220 221 220 219 221 221 214 210 210 198 183 178 173 167 166 162 156 149 139 132 126 122 116 108 100 93 86 76 67 58 45 35 28
256 137 124 123 139 150 125 139 158 153 162 202 197 211 220 175 229 249 323 321 304 105 40 323 276 263 333 214 166 356 308 279 271 253 236 224 222 224 226 227 227 227 228 227 227 226 224 223 222 222 221 220 220 222 223 222 221 223 221 215 209 206 196 183 180 179 173 171 172 166 161 156 147 136 128 120 112 106 100 91 84 77 70 64 64 63
284 131 147 141 127 160 151 170 196 186 176 225 215 211 207 184 191 208 313 323 265 117 48 352 286 233 36 304 169 26 321 261 244 263 256 241 233 229 229 230 230 230 231 232 231 230 228 226 225 223 222 221 221 224 226 223 222 224 222 216 210 206 196 186 184 184 177 174 181 176 170 165 155 146 137 129 121 114 110 101 91 83 79 74 76 79
6 87 148 141 123 152 169 216 209 186 169 200 215 191 177 159 155 165 173 265 300 318 36 5 287 268 314 302 101 345 310 288 251 238 111 234 235 229 232 236 236 234 233 233 233 234 233 230 226 223 222 221 222 225 226 223 221 222 222 216 212 208 199 191 188 187 181 174 174 172 168 164 158 156 151 144 140 130 118 107 97 89 86 83 81 83
156 109 73 81 105 140 194 261 194 179 168 161 154 150 151 153 161 161 155 177 301 315 308 48 313 274 278 257 88 319 294 312 323 360 37 39 251 240 240 241 241 242 239 236 235 235 235 232 229 226 224 223 222 224 225 224 221 221 220 216 213 210 203 195 192 191 184 172 168 166 163 163 165 171 176 171 165 154 132 112 102 94 92 92 90 89
162 182 184 156 140 220 242 200 169 178 180 12 116 125 129 127 126 133 129 129 60 290 250 148 106 261 268 253 94 320 287 329 360 350 343 333 318 301 283 263 247 242 242 242 240 239 237 236 233 230 227 224 222 224 226 225 222 220 219 215 213 212 206 200 196 195 186 175 174 172 167 165 169 179 192 199 198 194 169 135 117 103 97 96 96 97
206 227 209 179 225 255 252 73 170 184 184 126 138 103 84 77 70 78 96 113 104 268 258 246 65 266 271 266 290 34 57 350 337 330 323 324 326 319 309 299 280 257 244 241 242 244 242 240 237 231 227 224 221 223 226 224 222 220 218 215 213 213 210 204 200 197 191 182 181 181 176 173 175 184 197 208 214 218 208 183 156 125 111 101 101 106
293 238 194 204 236 167 106 77 92 148 116 144 148 102 85 70 57 67 48 71 168 240 255 334 20 255 271 296 85 33 10 303 304 310 315 326 332 328 319 312 304 285 264 252 246 244 243 240 236 231 228 225 222 223 225 224 222 221 219 217 214 214 213 208 203 200 197 192 189 189 186 182 185 192 201 210 216 223 223 210 194 168 143 125 116 119
326 193 197 258 220 136 110 88 52 48 112 150 156 115 121 63 64 98 65 108 233 243 264 9 351 226 246 239 100 21 300 273 270 290 314 324 327 326 324 321 315 303 291 271 249 241 239 236 233 230 227 225 222 223 225 224 222 221 220 219 216 215 215 211 207 204 201 200 198 196 194 193 194 200 208 216 222 227 231 225 216 201 178 164 156 150
308 217 289 305 194 161 158 118 93 91 167 189 157 140 212 247 99 241 247 189 239 253 26 9 320 223 243 265 9 350 311 302 289 290 305 313 314 319 327 333 329 320 316 296 246 232 231 230 230 229 226 224 223 224 226 226 223 221 221 222 219 217 217 215 211 208 205 205 206 204 203 202 202 205 212 220 228 233 236 234 230 222 204 190 186 186
302 272 26 298 165 157 212 200 182 188 188 198 179 167 216 218 159 233 226 247 260 261 42 9 282 247 245 276 7 340 323 327 325 321 319 317 316 321 338 355 359 349 347 351 256 220 221 225 228 229 228 225 224 225 227 227 224 220 221 224 222 219 219 219 216 213 211 210 212 212 210 209 209 210 212 219 228 234 237 239 239 235 221 206 205 207
287 281 126 202 46 52 242 234 214 112 152 191 176 161 205 199 208 242 227 239 257 201 73 121 214 229 228 34 356 323 330 349 355 350 344 342 346 2 19 30 31 25 24 30 27 217 217 223 226 229 229 228 227 227 228 228 226 221 221 224 223 219 219 221 220 219 217 215 215 217 216 215 216 216 217 222 230 236 239 240 241 239 229 219 220 220
271 269 279 305 291 104 274 249 99 117 146 117 45 175 211 199 179 221 296 283 283 224 137 195 229 251 285 337 331 329 3 27 16 2 0 359 9 34 44 45 43 41 43 48 48 59 218 224 225 229 231 231 230 230 231 231 229 224 222 225 225 221 221 224 224 223 222 220 219 221 221 220 221 223 225 226 231 238 243 243 242 244 241 234 233 231
233 262 297 323 272 74 2 196 145 260 190 134 183 195 181 93 125 130 122 53 7 247 203 173 227 223 209 223 169 66 45 52 22 7 12 8 15 37 46 48 50 51 52 54 61 74 134 215 222 229 233 235 236 236 236 236 235 231 227 228 228 225 224 226 227 226 225 224 225 226 226 226 226 228 231 232 234 240 246 246 243 242 241 238 238 238
243 259 322 316 229 34 15 124 92 31 55 148 199 167 130 102 92 125 198 78 149 243 218 178 227 207 197 188 156 165 181 124 22 5 18 22 27 36 43 49 55 60 63 63 65 71 85 138 200 221 234 243 245 245 245 244 245 242 237 235 234 231 229 229 229 229 229 228 229 230 230 232 231 231 234 236 239 244 248 250 247 243 241 240 240 241
252 264 318 46 241 341 1 162 113 58 42 15 188 121 124 220 189 157 195 165 205 235 221 191 226 224 220 195 162 178 185 167 146 3 38 41 34 34 45 55 62 68 70 70 69 71 75 89 111 126 156 227 245 248 250 251 252 250 246 243 240 237 235 234 232 232 232 231 232 233 232 236 239 238 239 241 243 247 249 251 251 248 245 243 242 243
253 271 284 137 259 319 353 257 224 123 73 58 130 124 33 274 229 184 181 203 221 227 214 198 208 220 220 187 166 177 178 168 176 39 55 52 37 38 53 64 69 72 72 73 74 76 77 81 88 96 102 108 120 175 226 245 257 260 258 254 248 243 239 237 236 235 235 235 235 235 234 237 241 242 243 244 245 247 248 249 250 249 248 245 245 245
121 256 266 312 320 275 272 17 280 191 122 146 176 179 173 114 317 244 169 86 241 208 182 197 222 213 169 164 175 168 163 170 194 280 35 37 31 49 67 75 77 78 78 79 79 80 82 84 85 87 91 95 97 96 95 111 162 263 274 267 259 251 245 241 240 239 238 238 238 238 236 238 241 245 249 249 247 247 246 246 246 246 247 246 244 245
111 194 251 301 309 274 312 31 321 295 289 255 234 220 194 155 192 224 209 169 321 225 187 186 230 223 98 158 200 152 144 168 196 257 4 37 35 56 70 79 82 83 84 84 84 84 85 87 87 87 88 88 89 88 87 90 90 86 345 276 267 261 255 250 248 246 245 244 242 241 240 240 240 243 249 252 250 248 246 246 246 245 245 245 244 244
146 134 235 266 283 286 319 347 286 271 262 242 293 278 185 165 201 233 233 199 155 165 113 129 244 239 95 137 225 234 231 209 202 196 152 107 94 86 80 82 83 85 87 87 88 87 86 86 86 86 87 86 86 87 87 85 79 74 68 8 271 260 256 254 252 252 252 250 248 245 244 244 242 242 245 251 252 250 247 247 247 246 245 245 245 244
162 175 276 268 290 303 305 6 247 215 162 174 41 57 214 255 154 251 258 167 182 178 146 187 238 191 135 87 201 239 241 213 182 166 150 133 120 107 95 91 87 85 86 86 86 86 87 88 86 84 84 83 83 83 80 77 74 70 65 50 312 257 249 244 241 244 248 251 252 250 247 246 245 243 244 248 253 254 252 249 249 249 248 247 246 245
240 238 237 273 291 292 265 220 210 195 165 247 328 55 273 94 93 117 138 148 221 202 163 224 239 177 135 83 73 134 181 159 152 155 152 141 129 117 105 99 95 91 90 87 84 83 84 84 81 79 78 78 78 77 74 73 73 73 72 66 65 49 261 245 241 241 242 244 247 249 249 248 248 246 244 246 250 254 256 253 251 250 250 248 247 245
252 214 197 248 260 253 248 249 262 273 214 282 280 215 237 86 114 185 174 198 229 202 164 222 247 114 140 159 112 108 179 165 149 151 154 145 134 124 113 107 104 100 96 91 87 83 80 78 74 73 72 69 68 67 66 66 66 69 73 71 64 51 34 15 341 289 261 251 245 244 245 246 248 250 248 247 249 252 256 256 255 255 253 251 248 246
169 263 222 238 250 254 259 259 308 5 273 272 275 236 203 81 85 131 162 212 212 185 198 212 262 212 188 184 175 178 200 186 163 160 162 153 144 132 120 114 109 103 97 91 86 81 76 72 68 66 63 60 58 56 51 48 43 39 35 18 2 356 353 350 347 341 322 292 271 259 252 246 245 250 253 253 252 253 256 258 260 261 259 256 252 248
139 287 210 215 249 256 270 264 167 164 263 267 270 253 226 189 175 173 212 210 130 214 241 192 190 224 203 192 196 194 201 202 187 181 175 169 164 148 131 122 112 101 92 81 75 69 62 55 49 43 39 35 33 29 24 21 13 3 356 348 340 328 318 314 314 317 320 316 306 293 281 267 255 250 252 254 255 256 257 259 262 265 265 263 257 251
177 263 187 198 249 232 224 249 221 217 253 252 249 251 241 222 204 207 227 194 162 229 251 176 187 215 208 205 211 198 196 201 195 188 183 183 181 166 147 136 119 100 85 71 59 50 41 32 24 17 10 5 1 357 352 348 342 337 333 331 329 323 315 309 304 302 304 306 307 303 295 288 277 265 258 253 252 253 256 259 262 265 267 265 259 254
225 263 172 197 258 246 238 247 215 215 250 252 244 241 238 238 231 231 240 210 199 238 260 166 207 222 214 220 232 209 200 196 190 190 194 198 194 178 161 143 122 95 73 57 43 31 19 10 2 356 352 348 343 339 336 334 332 329 326 322 320 316 313 310 307 304 302 301 300 300 297 294 290 284 275 265 257 252 254 257 260 262 264 265 261 255
227 267 117 168 264 262 259 263 243 229 244 254 253 245 236 240 237 240 244 217 221 252 250 203 230 240 232 237 271 265 192 187 191 201 206 209 200 184 168 145 121 90 63 43 27 15 4 356 348 342 339 337 334 331 328 326 324 322 320 317 314 313 311 309 307 304 303 303 300 298 297 296 293 290 286 282 274 264 256 255 258 261 262 264 264 257
194 248 92 195 267 257 238 255 260 261 263 258 252 244 240 235 223 224 226 196 208 234 228 218 234 247 238 228 241 219 187 191 203 207 207 214 204 187 170 141 108 69 43 25 12 3 355 348 342 338 336 332 328 325 321 319 317 315 313 310 309 309 307 307 307 304 303 303 302 301 298 295 293 291 290 289 287 280 269 260 259 261 261 260 262 257
184 242 198 211 268 263 228 252 282 304 287 263 233 222 239 238 230 228 226 210 210 219 225 228 238 270 266 200 209 210 199 199 203 194 201 214 204 191 178 145 97 49 26 12 2 355 348 343 338 334 331 328 325 322 318 315 313 309 308 306 305 305 305 306 306 304 303 302 302 303 302 298 293 290 289 289 289 289 283 272 262 259 259 259 259 255
183 237 244 215 247 267 295 355 323 266 260 260 105 227 249 251 251 249 250 249 230 231 263 275 287 358 357 224 228 213 180 160 156 162 185 205 203 205 202 174 73 20 4 355 351 345 339 335 330 326 325 322 318 316 313 311 309 306 303 302 302 302 303 304 303 304 305 305 303 302 300 299 295 289 286 285 286 288 287 282 270 260 258 258 257 251
186 206 219 199 229 271 357 14 246 244 250 310 359 299 260 263 267 262 269 334 348 304 298 297 305 350 237 207 102 106 116 110 108 108 89 183 228 235 229 224 262 344 344 338 335 333 330 327 324 322 321 318 315 313 311 309 307 304 301 300 300 301 302 302 302 302 305 307 307 303 297 294 292 289 285 281 280 282 284 283 276 265 258 257 256 249
185 179 181 184 198 219 184 196 215 275 318 303 305 344 302 291 302 269 257 36 20 343 310 302 309 49 148 117 87 87 85 69 75 80 61 42 23 349 283 257 268 307 326 326 323 322 322 321 320 319 317 316 315 313 312 311 309 305 303 303 302 302 303 302 300 302 304 306 306 302 296 290 288 288 285 280 276 276 277 279 276 267 257 256 254 245
181 162 177 215 204 185 225 226 239 313 312 289 314 16 333 316 355 314 252 56 22 357 349 353 4 30 63 66 60 58 53 49 103 97 61 34 16 3 343 315 302 305 312 312 310 312 314 315 316 315 313 312 311 310 311 311 309 306 305 306 307 307 306 303 302 304 304 302 300 298 294 290 287 286 285 281 276 274 275 276 274 264 254 252 249 238
171 176 200 223 220 164 233 262 271 283 288 274 357 345 318 273 268 272 235 112 41 13 7 7 11 12 7 13 25 30 27 359 205 139 32 6 352 343 335 324 313 306 304 304 305 308 310 311 311 310 308 307 305 306 308 307 306 304 304 306 308 308 307 306 307 307 303 298 295 292 290 288 286 285 284 281 277 276 276 273 265 257 252 249 243 232
109 42 138 217 239 178 219 254 250 229 243 37 276 314 328 305 229 213 228 200 61 7 355 359 3 3 3 4 9 11 343 291 246 303 339 340 334 329 324 317 310 306 302 302 304 305 305 306 305 304 303 301 300 302 304 303 302 301 302 305 308 306 306 307 308 305 299 294 290 288 286 284 283 282 281 278 274 273 273 267 258 253 250 245 236 225
111 72 129 227 241 208 215 252 251 234 266 325 280 305 325 327 193 216 239 235 9 334 331 338 335 337 350 356 6 12 296 277 297 315 322 324 321 317 316 312 307 305 302 300 301 301 301 301 300 300 298 297 297 299 301 300 298 298 301 305 307 305 306 307 305 299 294 290 288 286 282 279 277 276 276 274 270 266 263 258 253 251 249 243 232 217
73 29 246 239 246 222 222 251 268 262 239 207 296 316 330 324 207 230 251 310 319 311 317 322 311 312 324 322 303 291 289 295 306 311 312 314 314 313 311 308 306 305 302 301 300 300 299 297 296 295 294 294 297 298 298 297 295 296 301 305 305 305 306 306 301 295 291 288 285 281 277 273 270 269 270 269 264 257 252 248 249 251 247 235 219 206
20 351 267 222 250 251 221 251 288 295 150 65 334 338 346 269 241 274 308 309 300 298 307 310 301 297 304 301 290 289 297 303 308 309 309 310 310 310 308 307 307 306 304 304 302 301 299 296 294 292 291 292 295 295 295 295 293 295 300 303 303 305 305 304 300 296 291 285 280 275 270 266 264 263 264 263 256 247 239 238 244 245 235 217 202 194
327 296 271 216 233 286 225 226 271 279 97 32 355 349 1 30 320 327 320 312 309 305 302 299 294 287 285 285 285 293 303 309 310 308 308 307 306 305 304 304 304 305 305 304 303 302 301 298 295 294 293 291 290 290 292 292 292 295 298 300 301 303 301 300 300 296 289 281 275 268 264 261 259 257 256 255 248 236 229 233 237 230 215 199 188 180
268 247 294 275 222 250 216 196 222 103 71 11 342 324 298 295 320 324 317 310 313 315 309 297 288 291 302 297 294 302 309 310 310 309 308 306 304 302 301 301 301 301 302 302 301 302 302 299 297 295 293 290 287 287 289 290 292 293 295 297 299 297 292 293 296 292 285 277 271 267 263 259 255 252 248 243 234 229 230 231 222 204 189 180 173 168
303 316 298 273 242 261 268 274 293 300 310 323 321 306 293 298 312 319 315 307 311 322 324 307 284 293 319 316 307 309 310 309 310 310 308 306 304 301 300 300 299 298 298 298 298 299 300 300 298 296 293 290 288 287 288 289 291 292 294 296 295 289 283 285 289 286 279 272 268 266 262 257 253 248 236 226 227 232 226 206 183 168 161 156 152 152
312 341 278 249 275 298 280 269 283 295 307 317 315 311 307 308 317 325 323 318 319 324 327 318 300 301 316 315 309 306 306 306 307 306 305 304 303 302 301 299 297 295 295 295 296 297 298 296 295 294 292 291 290 289 288 289 290 292 293 293 290 284 279 279 281 279 274 268 267 266 261 253 244 231 221 223 227 217 194 174 163 156 151 146 144 146
318 23 294 264 287 303 286 296 313 307 308 312 311 312 313 315 322 326 322 318 319 318 317 314 308 307 309 308 306 303 302 303 302 301 302 302 301 301 301 298 296 294 293 293 294 295 295 293 291 291 290 290 290 289 289 290 290 291 292 291 287 281 276 271 269 268 266 263 265 265 255 239 227 221 218 213 198 182 169 160 154 148 143 144 147 152
325 20 310 277 272 276 277 291 297 296 298 302 303 305 308 310 315 317 314 311 311 310 308 306 304 302 300 299 299 300 299 299 298 299 301 301 301 300 299 296 295 294 293 293 292 292 293 290 288 287 287 287 288 288 289 290 290 290 290 286 281 277 270 261 257 257 255 255 261 261 241 221 221 219 202 183 171 161 151 143 140 138 140 145 151 154
271 284 291 285 288 286 281 287 294 295 297 300 300 300 302 304 307 308 307 307 306 305 305 302 297 294 292 291 292 294 294 295 297 298 299 298 297 296 295 295 295 294 292 292 291 291 290 288 285 285 285 285 286 288 290 290 289 288 285 280 274 269 263 257 255 253 249 249 253 246 225 217 219 203 177 162 153 146 138 136 138 142 147 152 153 149
254 282 290 286 291 290 288 301 309 307 298 296 299 300 299 299 299 298 298 299 299 299 302 300 293 288 286 285 287 290 292 294 295 296 296 295 294 295 296 297 296 292 291 291 290 290 289 287 286 285 284 284 286 289 290 289 286 284 280 274 268 264 260 257 253 247 241 235 229 222 217 213 198 176 160 152 148 144 140 137 138 143 149 150 144 135
250 297 309 294 293 295 293 296 300 297 290 289 292 294 296 297 295 289 287 289 290 293 295 293 288 286 286 287 289 291 293 294 294 295 295 294 295 297 298 297 296 293 292 291 290 289 289 287 287 287 286 287 289 289 288 284 281 278 274 268 263 262 262 256 244 231 220 213 211 213 209 192 171 156 150 147 145 143 141 139 139 143 146 143 135 124
Height
1491 1492 1494 1494 1493 1492 1494 1495 1495 1497 1498 1498 1497 1497 1497 1497 1493 1491 1492 1493 1494 1491 1491 1493 1493 1490 1488 1486 1487 1488 1489 1491 1492 1493 1493 1493 1494 1494 1494 1495 1495 1496 1497 1499 1502 1504 1506 1508 1510 1511 1513 1515 1516 1518 1520 1521 1522 1523 1524 1525 1526 1526 1527 1528 1528 1529 1529 1529 1529 1530 1530 1531 1531 1532 1532 1532 1533 1533 1533 1532 1532 1532 1533 1533 1533 1533
1491 1493 1494 1491 1491 1493 1494 1497 1497 1498 1499 1498 1498 1497 1498 1498 1493 1491 1493 1494 1495 1492 1491 1495 1493 1489 1487 1486 1486 1488 1488 1489 1490 1491 1492 1492 1492 1493 1493 1493 1494 1495 1497 1499 1501 1502 1504 1506 1508 1510 1511 1513 1515 1517 1519 1520 1521 1523 1524 1525 1525 1526 1527 1528 1529 1529 1529 1529 1530 1530 1531 1531 1531 1532 1532 1532 1532 1533 1532 1532 1532 1532 1531 1532 1531 1531
1493 1492 1491 1491 1493 1494 1496 1498 1497 1497 1498 1498 1499 1498 1496 1498 1495 1493 1494 1494 1495 1491 1490 1494 1492 1487 1487 1487 1486 1487 1486 1487 1488 1489 1489 1490 1491 1491 1492 1492 1493 1494 1496 1497 1499 1500 1502 1504 1506 1508 1509 1511 1513 1516 1517 1519 1520 1522 1523 1524 1525 1526 1527 1528 1529 1530 1530 1530 1530 1530 1531 1531 1532 1532 1532 1532 1533 1533 1532 1532 1532 1531 1531 1531 1530 1530
1493 1490 1490 1492 1493 1493 1495 1498 1497 1496 1497 1498 1498 1497 1496 1498 1497 1494 1493 1494 1496 1494 1493 1494 1492 1487 1486 1486 1486 1487 1486 1486 1486 1487 1487 1488 1488 1488 1489 1490 1491 1492 1494 1495 1496 1498 1500 1502 1504 1505 1507 1509 1511 1514 1515 1517 1519 1520 1522 1523 1524 1525 1526 1527 1528 1529 1530 1530 1530 1530 1531 1532 1532 1532 1532 1533 1533 1533 1533 1532 1532 1531 1531 1530 1530 1530
1490 1489 1491 1492 1493 1492 1493 1497 1497 1494 1495 1498 1497 1496 1495 1496 1495 1493 1494 1494 1494 1495 1496 1494 1490 1487 1487 1487 1486 1487 1487 1486 1485 1486 1486 1486 1487 1487 1488 1489 1489 1490 1491 1492 1493 1495 1497 1499 1500 1502 1504 1506 1509 1511 1512 1515 1517 1518 1521 1522 1523 1524 1525 1526 1527 1528 1529 1529 1530 1530 1531 1532 1532 1532 1533 1533 1533 1533 1533 1533 1532 1532 1531 1531 1530 1530
1488 1489 1491 1491 1492 1492 1492 1494 1494 1492 1494 1496 1494 1492 1491 1491 1492 1494 1495 1494 1493 1495 1497 1497 1494 1491 1488 1486 1486 1487 1487 1486 1485 1485 1485 1486 1486 1487 1487 1487 1488 1488 1489 1490 1491 1492 1493 1495 1497 1499 1501 1504 1506 1508 1510 1512 1515 1517 1520 1521 1522 1523 1524 1525 1526 1527 1528 1529 1529 1530 1531 1532 1532 1533 1533 1533 1534 1534 1534 1533 1533 1533 1532 1531 1531 1530
1489 1490 1490 1490 1490 1491 1492 1492 1491 1491 1493 1494 1490 1488 1491 1491 1491 1493 1493 1493 1495 1496 1499 1500 1498 1495 1489 1484 1485 1489 1486 1483 1483 1484 1485 1486 1486 1486 1486 1485 1485 1486 1486 1487 1487 1488 1490 1491 1493 1495 1497 1500 1503 1505 1508 1510 1513 1516 1518 1520 1521 1522 1523 1524 1525 1526 1527 1528 1529 1530 1531 1532 1533 1533 1534 1534 1534 1534 1534 1534 1534 1533 1533 1532 1531 1531
1489 1490 1491 1490 1489 1490 1489 1488 1489 1490 1490 1490 1488 1489 1491 1490 1490 1492 1492 1494 1497 1498 1498 1499 1498 1498 1493 1486 1486 1489 1486 1482 1482 1482 1483 1484 1484 1484 1483 1483 1483 1483 1483 1483 1484 1484 1485 1487 1489 1491 1493 1496 1500 1504 1506 1508 1511 1514 1516 1518 1520 1521 1522 1523 1524 1525 1527 1528 1529 1530 1531 1532 1532 1533 1534 1534 1534 1534 1534 1534 1534 1534 1533 1533 1532 1532
1488 1487 1488 1489 1488 1487 1485 1484 1486 1487 1487 1489 1491 1492 1491 1491 1492 1492 1493 1496 1500 1500 1496 1496 1498 1500 1495 1486 1486 1488 1485 1483 1482 1482 1483 1482 1482 1482 1481 1481 1480 1480 1480 1480 1480 1480 1481 1483 1485 1487 1490 1494 1499 1502 1503 1506 1509 1512 1515 1517 1518 1520 1521 1522 1523 1524 1526 1527 1528 1529 1530 1531 1532 1532 1533 1533 1534 1534 1534 1534 1534 1534 1534 1533 1533 1533
1486 1486 1486 1487 1486 1484 1483 1484 1486 1486 1486 1489 1492 1492 1492 1495 1495 1495 1496 1496 1500 1503 1497 1495 1499 1500 1495 1486 1484 1486 1485 1485 1485 1483 1483 1482 1481 1480 1478 1478 1477 1477 1476 1475 1476 1477 1478 1480 1482 1485 1489 1493 1497 1499 1501 1504 1508 1510 1513 1515 1517 1518 1520 1521 1522 1524 1525 1526 1527 1529 1530 1530 1531 1531 1532 1533 1533 1534 1534 1534 1534 1534 1534 1534 1534 1533
1485 1486 1486 1485 1483 1482 1484 1487 1489 1487 1488 1490 1490 1490 1491 1495 1495 1497 1499 1497 1501 1505 1498 1500 1504 1502 1499 1490 1486 1489 1490 1490 1489 1485 1483 1482 1480 1479 1477 1476 1475 1474 1473 1472 1473 1474 1475 1478 1481 1484 1487 1491 1495 1497 1499 1502 1505 1508 1511 1513 1515 1516 1518 1519 1521 1522 1524 1525 1526 1528 1529 1530 1530 1531 1531 1532 1532 1533 1534 1534 1534 1534 1534 1534 1534 1534
1485 1484 1484 1482 1481 1482 1484 1486 1490 1489 1490 1490 1487 1487 1491 1495 1496 1498 1500 1501 1507 1506 1500 1507 1510 1504 1500 1492 1487 1492 1492 1492 1492 1488 1485 1484 1482 1480 1477 1475 1473 1472 1470 1469 1469 1470 1472 1475 1478 1482 1485 1488 1492 1494 1496 1499 1503 1506 1509 1511 1513 1515 1516 1518 1520 1521 1522 1524 1525 1526 1528 1529 1530 1530 1530 1531 1532 1533 1533 1534 1534 1534 1534 1534 1534 1534
1481 1480 1482 1481 1479 1481 1482 1484 1490 1490 1490 1489 1486 1489 1495 1499 1504 1506 1504 1506 1507 1502 1502 1510 1510 1503 1496 1488 1487 1492 1491 1490 1491 1489 1488 1486 1484 1482 1479 1476 1473 1471 1469 1467 1467 1468 1470 1473 1476 1479 1482 1485 1489 1491 1494 1497 1500 1504 1506 1508 1510 1512 1514 1516 1518 1520 1521 1523 1524 1525 1526 1528 1528 1529 1529 1530 1531 1532 1533 1533 1533 1533 1534 1534 1534 1534
1482 1479 1480 1480 1479 1480 1480 1481 1486 1487 1488 1487 1485 1490 1495 1502 1513 1516 1513 1514 1509 1501 1505 1511 1507 1501 1493 1487 1490 1491 1490 1490 1490 1489 1489 1487 1486 1483 1480 1477 1473 1471 1469 1466 1466 1467 1469 1472 1474 1478 1481 1484 1487 1489 1492 1495 1498 1502 1505 1506 1508 1510 1513 1515 1516 1518 1520 1521 1523 1524 1525 1526 1527 1528 1528 1529 1530 1532 1532 1533 1533 1533 1534 1534 1534 1534
1491 1486 1480 1478 1479 1480 1480 1479 1480 1482 1485 1488 1486 1487 1489 1494 1504 1508 1505 1504 1502 1500 1507 1509 1504 1497 1490 1489 1491 1490 1490 1491 1490 1490 1489 1488 1487 1484 1481 1478 1474 1472 1470 1467 1467 1468 1469 1472 1474 1477 1480 1483 1486 1488 1490 1493 1497 1500 1503 1504 1506 1509 1511 1513 1515 1516 1518 1520 1521 1523 1524 1525 1526 1527 1528 1529 1530 1531 1532 1532 1533 1533 1533 1533 1534 1534
1497 1490 1480 1479 1480 1479 1479 1479 1480 1480 1484 1491 1489 1486 1488 1485 1488 1501 1508 1505 1502 1502 1504 1504 1500 1493 1490 1491 1491 1490 1491 1491 1491 1491 1490 1488 1487 1484 1480 1478 1476 1473 1471 1470 1469 1470 1471 1473 1474 1477 1479 1482 1484 1487 1489 1492 1495 1498 1501 1502 1504 1507 1510 1511 1513 1514 1516 1518 1520 1521 1523 1524 1525 1527 1527 1528 1529 1530 1531 1532 1532 1532 1533 1533 1533 1533
1495 1488 1479 1480 1480 1479 1480 1479 1480 1480 1481 1489 1489 1484 1486 1485 1484 1499 1512 1516 1512 1505 1501 1502 1497 1491 1491 1491 1489 1491 1491 1490 1491 1491 1489 1489 1486 1483 1481 1479 1478 1476 1474 1472 1471 1471 1473 1474 1476 1477 1479 1482 1484 1486 1488 1491 1494 1497 1499 1501 1503 1505 1507 1509 1511 1512 1514 1516 1518 1520 1521 1523 1524 1525 1526 1527 1528 1529 1530 1531 1531 1532 1532 1532 1532 1532
1493 1487 1479 1480 1480 1478 1480 1479 1479 1480 1480 1484 1485 1481 1484 1488 1488 1492 1502 1513 1515 1506 1502 1504 1500 1493 1492 1491 1489 1491 1491 1490 1491 1491 1490 1489 1485 1484 1483 1481 1480 1478 1477 1476 1474 1474 1474 1475 1477 1478 1480 1482 1484 1486 1488 1490 1493 1495 1498 1499 1501 1503 1505 1507 1509 1510 1512 1514 1516 1517 1519 1520 1522 1523 1524 1525 1526 1527 1528 1530 1530 1531 1531 1531 1531 1531
1493 1488 1481 1482 1482 1480 1479 1479 1479 1481 1480 1481 1480 1480 1484 1487 1488 1491 1498 1504 1507 1508 1506 1504 1504 1498 1489 1487 1488 1490 1490 1490 1491 1491 1489 1488 1487 1486 1485 1483 1482 1480 1479 1478 1476 1476 1476 1477 1478 1479 1480 1483 1484 1486 1488 1490 1492 1493 1496 1497 1499 1501 1503 1505 1507 1508 1510 1512 1513 1515 1517 1518 1520 1521 1522 1523 1525 1525 1526 1528 1529 1530 1530 1530 1530 1530
1493 1492 1486 1482 1483 1482 1479 1479 1481 1481 1482 1481 1481 1483 1485 1486 1487 1489 1493 1492 1493 1504 1507 1502 1501 1494 1482 1483 1486 1485 1488 1490 1490 1491 1489 1489 1489 1487 1486 1485 1483 1482 1481 1480 1479 1478 1478 1479 1480 1479 1481 1482 1484 1486 1487 1489 1490 1492 1494 1496 1497 1499 1501 1503 1504 1506 1508 1509 1510 1513 1515 1516 1517 1518 1520 1521 1522 1523 1524 1525 1527 1528 1528 1529 1529 1529
1493 1494 1490 1483 1481 1482 1481 1481 1483 1482 1482 1482 1482 1484 1486 1489 1491 1489 1491 1491 1490 1498 1506 1504 1498 1486 1480 1485 1485 1483 1487 1489 1490 1491 1490 1491 1491 1489 1488 1486 1484 1484 1483 1482 1482 1481 1481 1481 1482 1482 1482 1483 1485 1486 1487 1489 1490 1491 1492 1494 1496 1498 1499 1500 1502 1503 1505 1507 1508 1511 1512 1513 1515 1516 1517 1518 1519 1520 1521 1522 1523 1525 1526 1527 1527 1527
1492 1494 1493 1488 1483 1482 1483 1485 1487 1485 1485 1483 1482 1482 1483 1486 1489 1488 1492 1496 1492 1493 1499 1502 1495 1482 1481 1487 1486 1485 1488 1489 1490 1491 1491 1492 1492 1491 1490 1488 1486 1486 1485 1485 1484 1484 1484 1484 1484 1485 1484 1485 1486 1487 1489 1490 1490 1489 1491 1494 1495 1496 1498 1499 1500 1501 1503 1504 1506 1508 1509 1510 1512 1513 1513 1514 1515 1516 1517 1519 1520 1522 1523 1524 1525 1525
1492 1493 1493 1491 1486 1484 1486 1489 1489 1488 1488 1486 1485 1484 1484 1483 1483 1483 1487 1492 1494 1496 1498 1499 1495 1485 1483 1488 1487 1488 1490 1489 1490 1491 1491 1492 1492 1492 1491 1489 1489 1487 1486 1486 1486 1486 1486 1486 1486 1487 1486 1487 1487 1489 1490 1490 1490 1489 1491 1494 1495 1496 1496 1497 1498 1499 1500 1501 1503 1504 1506 1507 1509 1509 1510 1510 1511 1512 1514 1515 1517 1519 1520 1521 1522 1523
1492 1493 1493 1492 1488 1485 1485 1488 1489 1489 1488 1486 1486 1488 1488 1485 1483 1484 1486 1487 1491 1495 1495 1497 1497 1488 1484 1488 1488 1488 1490 1490 1491 1490 1491 1492 1491 1491 1491 1490 1490 1489 1488 1488 1487 1487 1488 1488 1488 1488 1488 1489 1489 1490 1490 1489 1489 1489 1491 1494 1495 1496 1496 1495 1495 1496 1497 1498 1499 1501 1502 1503 1505 1506 1507 1507 1507 1509 1511 1512 1514 1515 1517 1518 1520 1520
1492 1493 1495 1496 1495 1492 1489 1488 1487 1486 1486 1486 1488 1491 1491 1489 1488 1488 1489 1489 1489 1491 1491 1492 1491 1485 1485 1489 1488 1488 1489 1489 1490 1491 1490 1491 1491 1491 1491 1490 1490 1490 1490 1489 1489 1489 1489 1489 1489 1490 1490 1491 1490 1491 1491 1490 1490 1490 1491 1494 1496 1496 1495 1494 1494 1494 1494 1496 1497 1498 1498 1499 1501 1502 1503 1503 1504 1506 1508 1509 1510 1512 1513 1515 1516 1517
1492 1494 1494 1496 1500 1501 1497 1493 1489 1486 1488 1489 1489 1490 1490 1490 1489 1486 1487 1488 1489 1493 1493 1489 1485 1483 1486 1489 1488 1488 1489 1488 1490 1491 1490 1490 1490 1490 1490 1491 1491 1491 1491 1490 1490 1490 1490 1490 1490 1491 1491 1491 1491 1491 1492 1492 1492 1492 1493 1495 1495 1494 1494 1493 1492 1492 1493 1494 1495 1495 1496 1496 1497 1498 1499 1500 1501 1502 1504 1505 1507 1508 1509 1511 1512 1513
1494 1495 1494 1492 1493 1494 1491 1490 1492 1493 1491 1489 1488 1487 1489 1492 1491 1487 1488 1488 1488 1492 1492 1488 1486 1484 1484 1486 1487 1488 1488 1488 1488 1489 1489 1490 1489 1489 1490 1490 1490 1491 1491 1491 1491 1491 1491 1492 1492 1492 1492 1492 1492 1492 1492 1492 1493 1493 1494 1494 1493 1492 1491 1491 1491 1491 1491 1492 1493 1493 1493 1494 1494 1494 1495 1497 1498 1499 1500 1501 1503 1504 1505 1507 1508 1509
1494 1494 1495 1495 1492 1491 1490 1491 1495 1497 1493 1489 1488 1487 1487 1490 1491 1489 1488 1486 1488 1490 1488 1485 1487 1486 1481 1482 1485 1486 1487 1487 1486 1487 1488 1488 1489 1489 1489 1490 1490 1491 1491 1491 1491 1491 1491 1492 1492 1492 1492 1492 1493 1493 1493 1493 1494 1494 1494 1493 1492 1491 1490 1489 1489 1490 1490 1491 1491 1491 1491 1491 1491 1492 1492 1493 1494 1495 1496 1497 1498 1499 1501 1503 1504 1505
1494 1494 1495 1496 1492 1492 1494 1494 1495 1496 1493 1491 1491 1489 1487 1488 1490 1489 1486 1485 1488 1487 1482 1481 1484 1484 1481 1479 1480 1483 1484 1483 1483 1485 1485 1486 1487 1488 1488 1489 1490 1490 1490 1490 1490 1490 1491 1491 1491 1492 1492 1492 1492 1492 1493 1493 1493 1493 1492 1491 1490 1489 1489 1489 1489 1489 1489 1490 1490 1490 1489 1489 1489 1489 1489 1489 1490 1491 1491 1493 1494 1495 1496 1497 1499 1502
1494 1493 1495 1496 1493 1491 1492 1493 1494 1494 1492 1490 1489 1488 1488 1488 1487 1486 1484 1484 1486 1483 1481 1483 1482 1479 1478 1477 1478 1479 1481 1481 1482 1483 1484 1484 1486 1487 1488 1488 1489 1490 1490 1489 1489 1489 1490 1490 1490 1490 1490 1490 1490 1490 1490 1490 1490 1489 1489 1488 1488 1488 1488 1488 1488 1488 1488 1488 1488 1488 1487 1487 1487 1486 1486 1486 1486 1487 1488 1488 1489 1490 1491 1492 1494 1497
1494 1494 1496 1497 1494 1491 1490 1490 1491 1490 1490 1488 1485 1486 1489 1489 1489 1488 1486 1487 1488 1485 1485 1487 1485 1480 1478 1477 1478 1479 1480 1481 1482 1483 1483 1484 1485 1486 1487 1488 1489 1489 1489 1489 1489 1488 1488 1489 1489 1488 1488 1488 1488 1488 1487 1487 1487 1487 1487 1486 1486 1486 1486 1486 1486 1486 1486 1486 1486 1485 1484 1484 1484 1484 1483 1483 1483 1483 1483 1484 1485 1486 1487 1488 1489 1492
1494 1496 1497 1496 1495 1492 1489 1488 1487 1487 1488 1488 1486 1487 1487 1485 1486 1486 1485 1485 1485 1483 1483 1485 1484 1479 1476 1477 1479 1480 1481 1481 1481 1482 1483 1484 1484 1486 1486 1487 1487 1487 1487 1487 1488 1488 1488 1488 1488 1487 1487 1487 1486 1486 1486 1486 1485 1485 1485 1484 1484 1484 1484 1484 1484 1484 1484 1483 1483 1483 1482 1481 1481 1481 1480 1480 1480 1480 1480 1480 1481 1482 1483 1484 1486 1487
1496 1496 1495 1497 1497 1493 1490 1489 1489 1490 1490 1486 1484 1485 1482 1478 1479 1481 1481 1481 1480 1479 1479 1479 1476 1474 1474 1476 1477 1478 1479 1480 1480 1482 1483 1483 1484 1485 1485 1486 1486 1486 1486 1486 1486 1486 1486 1486 1486 1486 1486 1486 1485 1485 1485 1484 1484 1483 1483 1482 1482 1481 1481 1481 1481 1481 1481 1480 1480 1480 1479 1479 1478 1478 1477 1477 1476 1476 1476 1476 1477 1478 1479 1480 1482 1484
1497 1496 1495 1497 1498 1495 1493 1493 1494 1495 1491 1482 1480 1483 1481 1478 1478 1477 1476 1477 1478 1477 1476 1475 1475 1476 1477 1478 1476 1475 1477 1479 1481 1482 1483 1484 1484 1485 1485 1485 1484 1484 1485 1485 1485 1485 1485 1485 1485 1484 1484 1484 1484 1484 1483 1483 1483 1482 1481 1480 1480 1479 1479 1478 1478 1477 1477 1477 1477 1477 1476 1476 1475 1475 1474 1474 1473 1472 1472 1472 1473 1475 1476 1477 1478 1480
1496 1497 1498 1498 1499 1499 1498 1497 1500 1497 1487 1479 1481 1484 1482 1481 1480 1478 1477 1479 1481 1480 1478 1476 1477 1478 1478 1477 1477 1476 1477 1480 1481 1482 1483 1483 1483 1484 1484 1483 1483 1483 1483 1483 1483 1483 1483 1482 1482 1482 1482 1482 1482 1482 1481 1481 1481 1480 1479 1478 1478 1477 1477 1476 1475 1475 1475 1475 1475 1474 1473 1473 1472 1471 1471 1470 1470 1469 1469 1469 1470 1471 1472 1474 1475 1477
1495 1497 1499 1499 1500 1501 1500 1499 1499 1492 1481 1478 1482 1482 1481 1481 1480 1478 1478 1481 1483 1482 1480 1478 1477 1477 1478 1478 1478 1478 1478 1479 1480 1481 1482 1482 1482 1483 1483 1483 1483 1482 1482 1481 1481 1481 1481 1480 1480 1480 1480 1480 1479 1479 1479 1478 1478 1477 1476 1476 1476 1475 1475 1474 1473 1472 1472 1472 1472 1471 1470 1469 1468 1468 1468 1467 1467 1466 1466 1466 1467 1468 1469 1471 1472 1474
1494 1495 1496 1497 1497 1500 1501 1497 1492 1487 1483 1481 1482 1484 1484 1484 1484 1482 1480 1482 1484 1483 1481 1480 1478 1478 1478 1478 1478 1478 1478 1479 1479 1480 1481 1482 1482 1482 1482 1482 1482 1481 1481 1481 1480 1479 1479 1478 1478 1478 1477 1477 1477 1476 1476 1475 1475 1474 1473 1473 1473 1473 1472 1471 1471 1470 1470 1469 1468 1468 1467 1466 1465 1465 1464 1464 1464 1463 1463 1463 1464 1465 1466 1467 1469 1471
1493 1494 1494 1494 1495 1499 1501 1497 1493 1492 1489 1485 1484 1486 1486 1485 1486 1486 1483 1482 1483 1483 1482 1481 1479 1479 1478 1478 1478 1478 1477 1477 1477 1478 1479 1480 1480 1481 1481 1481 1481 1481 1480 1479 1478 1478 1477 1476 1476 1475 1475 1474 1474 1474 1473 1472 1471 1470 1469 1469 1470 1469 1469 1468 1468 1468 1467 1466 1465 1464 1464 1463 1462 1462 1461 1461 1460 1460 1460 1460 1461 1462 1463 1464 1466 1469
1495 1495 1494 1494 1496 1498 1498 1496 1495 1495 1490 1486 1486 1486 1485 1484 1485 1486 1483 1480 1482 1484 1483 1482 1481 1480 1479 1479 1479 1478 1478 1477 1476 1476 1478 1479 1479 1480 1480 1480 1480 1480 1479 1478 1477 1476 1475 1474 1473 1472 1472 1471 1471 1471 1470 1469 1468 1467 1466 1465 1466 1465 1465 1465 1465 1464 1463 1462 1461 1460 1460 1459 1459 1458 1458 1457 1457 1457 1457 1457 1458 1460 1461 1462 1463 1466
1494 1496 1497 1495 1495 1497 1497 1496 1495 1492 1488 1487 1487 1485 1484 1485 1484 1484 1483 1481 1483 1485 1484 1482 1482 1481 1480 1480 1480 1479 1479 1478 1478 1478 1478 1479 1479 1480 1480 1479 1479 1478 1477 1476 1476 1475 1474 1473 1471 1470 1469 1468 1467 1467 1467 1466 1464 1463 1462 1462 1462 1461 1461 1461 1461 1459 1458 1457 1456 1456 1456 1455 1455 1455 1454 1454 1454 1454 1454 1454 1456 1457 1458 1459 1461 1464
1496 1498 1499 1497 1496 1496 1497 1496 1493 1489 1487 1487 1487 1485 1485 1484 1484 1484 1484 1484 1485 1485 1483 1483 1483 1481 1481 1481 1480 1480 1480 1480 1480 1479 1479 1478 1478 1478 1478 1478 1477 1476 1475 1474 1473 1473 1471 1470 1469 1468 1466 1465 1465 1464 1464 1462 1461 1459 1459 1458 1457 1457 1457 1457 1456 1454 1453 1452 1452 1452 1451 1451 1451 1451 1450 1450 1450 1450 1450 1451 1453 1454 1456 1457 1460 1463
1500 1500 1500 1499 1498 1498 1497 1496 1494 1490 1487 1487 1487 1485 1484 1485 1486 1486 1486 1486 1485 1484 1483 1483 1482 1481 1481 1481 1480 1480 1479 1479 1479 1479 1478 1477 1476 1475 1475 1474 1473 1472 1472 1471 1470 1469 1468 1466 1465 1464 1463 1462 1462 1461 1460 1459 1457 1455 1455 1454 1453 1453 1453 1452 1451 1450 1449 1448 1447 1447 1447 1447 1447 1446 1446 1446 1446 1447 1447 1449 1450 1452 1453 1456 1459 1462
1499 1501 1500 1498 1499 1500 1500 1500 1498 1493 1488 1487 1488 1487 1486 1487 1488 1487 1485 1485 1484 1483 1482 1482 1481 1481 1480 1479 1479 1479 1478 1477 1477 1477 1476 1475 1474 1473 1472 1470 1469 1468 1467 1466 1465 1465 1464 1462 1460 1459 1458 1458 1458 1457 1456 1455 1452 1452 1451 1450 1449 1450 1449 1448 1447 1446 1444 1443 1443 1443 1443 1442 1442 1443 1442 1443 1443 1444 1445 1446 1447 1449 1452 1455 1459 1462
1498 1500 1501 1499 1498 1499 1500 1497 1493 1489 1488 1489 1490 1489 1488 1487 1487 1486 1485 1483 1482 1482 1481 1480 1479 1479 1479 1478 1477 1477 1476 1475 1474 1474 1473 1472 1471 1470 1469 1467 1465 1463 1462 1462 1461 1460 1459 1457 1455 1454 1454 1453 1453 1452 1451 1450 1448 1447 1446 1446 1446 1446 1444 1443 1443 1441 1440 1439 1439 1439 1439 1439 1439 1439 1439 1440 1440 1441 1442 1443 1445 1449 1453 1456 1459 1463
1498 1498 1500 1499 1497 1496 1495 1491 1488 1487 1488 1489 1490 1489 1488 1487 1486 1485 1484 1483 1482 1481 1480 1479 1478 1477 1477 1476 1475 1474 1473 1472 1471 1470 1469 1468 1467 1466 1465 1464 1462 1460 1458 1457 1456 1455 1455 1452 1450 1449 1448 1447 1447 1447 1446 1445 1444 1442 1441 1441 1441 1441 1439 1439 1438 1437 1436 1436 1435 1435 1435 1435 1435 1436 1436 1437 1438 1439 1440 1442 1444 1448 1453 1456 1459 1462
1499 1499 1500 1498 1496 1494 1492 1489 1489 1489 1488 1487 1487 1487 1486 1485 1484 1483 1483 1482 1481 1479 1478 1477 1476 1475 1475 1474 1473 1471 1470 1469 1468 1467 1466 1464 1463 1462 1460 1459 1457 1456 1454 1452 1451 1451 1449 1447 1445 1443 1442 1441 1442 1441 1441 1440 1438 1436 1435 1436 1436 1435 1434 1434 1434 1433 1432 1432 1432 1432 1432 1432 1432 1433 1434 1435 1436 1438 1440 1441 1444 1447 1450 1454 1458 1462
1498 1499 1499 1497 1496 1496 1493 1489 1488 1488 1487 1486 1485 1484 1483 1483 1483 1482 1481 1480 1479 1477 1476 1475 1474 1473 1472 1471 1470 1468 1467 1466 1465 1464 1462 1461 1459 1457 1455 1453 1452 1451 1449 1448 1446 1445 1444 1442 1440 1438 1437 1436 1436 1436 1435 1434 1433 1431 1430 1430 1430 1429 1429 1429 1429 1428 1428 1428 1428 1429 1429 1429 1430 1431 1432 1433 1435 1438 1440 1442 1444 1447 1450 1453 1457 1461
1499 1499 1498 1495 1495 1495 1492 1489 1488 1487 1486 1485 1484 1482 1481 1481 1480 1480 1479 1478 1477 1475 1473 1472 1471 1470 1468 1468 1467 1465 1463 1462 1461 1460 1458 1456 1454 1452 1450 1448 1446 1445 1444 1442 1441 1440 1439 1437 1435 1433 1432 1430 1430 1430 1430 1428 1427 1426 1425 1424 1424 1424 1424 1424 1424 1424 1424 1424 1425 1425 1426 1427 1428 1429 1430 1433 1436 1438 1440 1443 1445 1448 1451 1454 1457 1461
1499 1499 1496 1495 1494 1492 1490 1488 1487 1485 1483 1482 1482 1481 1480 1479 1477 1476 1476 1475 1473 1472 1471 1469 1468 1467 1465 1464 1463 1462 1460 1458 1457 1456 1454 1452 1450 1448 1446 1444 1442 1440 1439 1437 1436 1435 1434 1432 1430 1428 1427 1425 1425 1425 1424 1422 1421 1420 1419 1418 1418 1419 1419 1419 1419 1419 1420 1421 1422 1422 1423 1425 1426 1428 1430 1433 1436 1439 1441 1445 1447 1450 1453 1456 1459 1461
1498 1496 1495 1495 1495 1492 1489 1487 1487 1485 1483 1480 1479 1477 1476 1476 1475 1473 1472 1471 1469 1468 1467 1466 1464 1463 1462 1461 1460 1459 1457 1455 1453 1452 1450 1448 1446 1444 1442 1440 1438 1435 1434 1433 1432 1430 1429 1427 1425 1424 1422 1420 1420 1419 1417 1416 1415 1414 1413 1413 1414 1414 1414 1414 1414 1415 1415 1417 1418 1419 1421 1422 1424 1427 1430 1433 1436 1439 1442 1446 1449 1452 1454 1456 1459 1460
1496 1495 1494 1494 1494 1491 1488 1487 1487 1486 1482 1479 1477 1474 1472 1472 1471 1469 1468 1467 1465 1464 1464 1462 1460 1459 1458 1457 1456 1456 1454 1451 1449 1448 1446 1443 1442 1440 1438 1436 1434 1431 1429 1428 1427 1425 1423 1422 1420 1419 1417 1415 1414 1413 1411 1410 1409 1409 1409 1409 1409 1409 1409 1409 1410 1410 1411 1413 1415 1416 1418 1421 1424 1429 1432 1434 1436 1439 1442 1445 1449 1452 1454 1456 1458 1459